Regional Weather Roundup
Issued by NWS San Diego, CA

Home | Current Version | Previous Version | Text Only | Print | Product List | Glossary On
Versions: 1 2 3 4 5 6 7 8 9 10 11 12 13 14 15 16 17 18 19 20 21 22 23 24 25 26 27 28 29 30 31 32 33 34 35 36 37 38 39 40 41 42 43 44 45 46 47
000
ASUS46 KSGX 261611
RWRSGX

SAN DIEGO HOURLY WEATHER ROUNDUP
NATIONAL WEATHER SERVICE SAN DIEGO CA
900 AM PDT TUE MAY 26 2015

NOTE: "FAIR" INDICATES FEW OR NO CLOUDS BELOW 12,000 FEET WITH NO
SIGNIFICANT WEATHER AND/OR OBSTRUCTIONS TO VISIBILITY.

CAZ042-043-060-061-PZZ750-775-261700-

GREATER SAN DIEGO AREA

CITY           SKY/WX    TMP DP  RH WIND       PRES   REMARKS
LINDBERGH FLD  CLOUDY    64  55  72 W3        30.01S
POINT LOMA       N/A     62  56  80 NW5         N/A
NATIONAL CITY    N/A     63  58  83 CALM      30.00S
CHULA VISTA      N/A     62  58  86 NW6       29.93S
IMPERIAL BEACH CLOUDY    63  56  78 W7        30.00S
BROWN FIELD    CLOUDY    60  56  86 CALM      29.99S
MIRAMAR MCAS   CLOUDY    64  56  75 N3        29.99S
MONTGOMERY FLD CLOUDY    61  57  87 VRB5      30.00S

$$

NORTH SAN DIEGO COUNTY

CITY           SKY/WX    TMP DP  RH WIND       PRES   REMARKS
CAMP PENDLETON CLOUDY    63  56  78 CALM      29.98F
OCEANSIDE AP   CLOUDY    64  56  75 CALM      29.98F
OCEANSIDE HBR    N/A     62  59  90 W7        30.01F
VISTA            N/A     60  55  81 CALM      29.97F
CARLSBAD       CLOUDY    62  57  83 CALM      29.98F
DEL MAR          N/A     61  59  93 CALM      30.01F
LA JOLLA SCRIP   N/A    N/A N/A N/A CALM      29.97S
FALLBROOK        N/A     61  60  96 CALM      29.98F
ESCONDIDO        N/A     60  57  88 CALM      30.00F
SAN MARCOS       N/A     60  56  88 CALM      29.97F
POWAY            N/A     60  56  87 CALM      30.01S

$$

EAST SAN DIEGO COUNTY

CITY           SKY/WX    TMP DP  RH WIND       PRES   REMARKS
RAMONA         CLOUDY    57  54  89 CALM      29.99F
SANTEE LAKES     N/A     61  57  85 CALM      29.99S
LA MESA          N/A     60  57  88 NW2       29.93S
JAMUL            N/A     58  55  91 NW2       29.99S
DESCANSO N       N/A     60  51  72 CALM      29.87F
MT. LAGUNA OBS   N/A     57  41  56 CALM      29.68R

$$

ORANGE COUNTY AND THE LOS ANGELES BASIN

CITY           SKY/WX    TMP DP  RH WIND       PRES   REMARKS
JOHN WAYNE AP  CLOUDY    62  54  74 CALM      29.99F
LAKE FOREST FR   N/A     60  53  78 CALM      29.91S
SANTA ANA        N/A     64  58  80 CALM      29.95S
HUNTINGTON BCH   N/A     61  58  88 CALM      30.01F
LOS ALAMITOS   CLOUDY    62  56  79 CALM      30.00S
FULLERTON      CLOUDY    64  55  72 CALM      29.99S
LONG BEACH     CLOUDY    64  55  72 CALM      30.00S
L.A. AP        CLOUDY    60  55  83 CALM      30.00S

$$

THE INLAND EMPIRE

CITY           SKY/WX    TMP DP  RH WIND       PRES   REMARKS
CORONA         PTSUNNY   62  55  77 CALM      30.00S
CHINO          CLOUDY    63  55  75 CALM      30.01S
ONTARIO        CLOUDY    59  54  83 CALM      29.99F HAZE
SAN BERNARDINO CLOUDY    59  50  72 W3        30.00S HAZE
RIVERSIDE AP   CLOUDY    61  55  81 CALM      30.00S
RIV CYN CREST    N/A     59  59 100 W2          N/A
MORENO VALLEY    N/A     57  56  98 W2        29.97S
HORSETHIEF CYN   N/A     58  51  77 CALM      29.96S
MENIFEE          N/A     60  56  89 NW2       30.05S
HEMET EAST       N/A     58  50  73 CALM      29.96F
FRENCH VALLEY  CLOUDY    59  54  82 CALM      30.00F
TEMECULA         N/A     60  57  89 NW3       29.95F

$$

SAN BERNARDINO AND RIVERSIDE COUNTY MOUNTAINS

CITY           SKY/WX    TMP DP  RH WIND       PRES   REMARKS
BIG BEAR AP    SUNNY     55  23  28 W3        30.13S
PINE COVE        N/A     59  24  25 S2        29.90S

$$

SOUTHERN DESERT INCLUDING THE COACHELLA VALLEY

CITY           SKY/WX    TMP DP  RH WIND       PRES   REMARKS
PALM SPRINGS   SUNNY     76  50  40 NW5       29.91F
THOUSAND PALMS   N/A     74  52  46 NW2       29.89S
PALM DESERT      N/A     75  56  52 CALM      27.58F
THERMAL        SUNNY     77  52  41 NW9       29.88S
BLYTHE         SUNNY     77  43  29 CALM      29.90S
IMPERIAL AP    SUNNY     73  56  54 VRB3      29.88S
EL CENTRO NAS  MOSUNNY   74  54  49 NW6       29.90S
YUMA AZ        MOSUNNY   79  42  26 S6        29.89S

$$

UPPER DESERT

CITY           SKY/WX    TMP DP  RH WIND       PRES   REMARKS
VICTORVILLE AP SUNNY     68  43  40 SE3       29.98S
HESPERIA         N/A     67  47  47 W2        30.01F
APPLE VALLEY     N/A     69  46  42 CALM      30.02F
PALMDALE       SUNNY     69  47  45 S8        29.97S
LANCASTER      SUNNY     71  47  42 W7        29.96S
DAGGETT        SUNNY     74  41  30 NW13      29.94S
29 PALMS N     MOSUNNY   73  40  30 N5        30.01S
NEEDLES        SUNNY     84  29  13 E3        29.91R

$$

REGIONAL REPORTS

CITY           SKY/WX    TMP DP  RH WIND       PRES   REMARKS
SANTA BARBARA  CLOUDY    60  53  77 S7        30.01R
LAS VEGAS NV   MOSUNNY   79  41  25 VRB3      29.90S
PHOENIX AZ     MOSUNNY   80  40  23 VRB5      29.94S
ENSENADA NW      N/A     60  32  34 W12       29.98R

$$

OFFSHORE ISLANDS

CITY           SKY/WX    TMP DP  RH WIND       PRES   REMARKS
CATALINA ARPT  CLOUDY    54  53  97 N3        30.02R
SAN CLEMENTE I CLOUDY    61  54  77 W9        30.03R
SAN NICOLAS IS CLOUDY    56  45  66 NW10      30.02R

$$

MARINE AND OFFSHORE BUOY REPORTS

STATION/POSITION SKY/WX   TEMP    WIND        PRES    SWELL
                          AIR SEA DIR/SP/G            HT/PER/DIR
                          (F)     (DEG/KT/KT) (MB)    (FT/S/D)
TANNER BANKS               58 61  330/ 10/ 14 1016.7R   3/200/14
S CLEMENTE BASIN           60 62  300/ 10/ 12 1015.8S   3/180/15
SAN NICOLAS IS.               59                N/A     3/190/13
SO. S. ROSA ISLA           56 59  310/ 14/ 19 1016.0R   3/14
W. S. BARBARA CH           55 57  340/ 14/ 16 1016.0R   3/250/15
M. S. BARBARA CH           56 58  220/ 10/ 12 1016.5R
S. MONICA BASIN            59 63   20/  6/  8 1016.3R   3/180/15
S PEDRO CHANNEL               64                N/A     2/170/14
DANA POINT                    64                N/A     3/200/15
OCEANSIDE OFFSHR              65                N/A     3/190/14
TORREY PINES OTR              65                N/A     2/220/18
LA JOLLA 1                 62 65  360/  4/  5 1015.5S
MISSION BAY BUOY              65                N/A     3/200/14
SAN DIEGO BAY                 67              1016.0R
POINT LOMA SOUTH              64                N/A     3/220/18

$$



USA.gov is the U.S. government's official web portal to all federal, state and local government web resources and services.